Aérodrome :
LOGIN :

S'inscrire | Disclaimer

   EN    FR    IT 

 










Légende :    VFR   VFR Marginal   IFR   IFR Intensif   IFR Très Intensif
Visi : 
Plafond : 
>= 8 km
>= 3000ft
5 à 8 km
1000 à 3000 ft
1500m à 5 km
500 à 1000 ft
800 à 1500m
200 à 500 ft
< 800m
< 200 ft
Symboles :   Orages  Brouillard  Fortes neiges  Fortes précipitations  Vent > 20 kt
SIGMETs :   Divers  Orages  Givrage  Turbulence  Onde Orograph.  Cendres Volcan.







- Altitude de l'aérodrome : 187 ft


ETNW - Wunstorf AB

DERNIER METAR :
  • 181420Z 16009KT 9999 FEW018 BKN290 06/03 Q1021 BLU+BLU+

METARs EXPIRÉS :
  • 181320Z 16009KT 9999 FEW018 BKN310 07/03 Q1022 BLU+BLU+
  • 181220Z 16009KT 9999 FEW013 BKN340 07/04 Q1022 BLU+BLU+

TAF TAF ETNW
Valide du 18 à 12h jusqu'au 19 à 12h UTC


181102Z 1812/1912 17008KT 9999 NSW SCT015 SCT250
BECMG 1821/1823 13010G20KT 8000 NSW BKN180
BECMG 1910/1912 13010G20KT 7000 -RA SCT020 BKN050 BY ETGL
Pas de NOTAMs connus pour ce terrain.



MET'MAP, la Météo Aéronautique d'un coup d'oeil ! - Copyright ORBIFLY Décembre 2007 - Disclaimer

ORBIFLY MET'MAP TEAM :

Programmation & Développement : Alexandra Zaïnal
Conception & Développement : Baudouin d'Aumeries
Co-Programmation & Développement : Marc-Olivier Méhu
Soutien technique & logistique : Manuel Goepfert

Contact : metmap@orbifly.com




SOURCES & CREDITS :

   NOAA